CW9244 Weather Reports


Display with metric or nautical units.
time (UTC)temp
F
wind
direction
speed
MPH
gust
MPH
rain 1hr
in
rain 24hr
in
rain mn
in
humidity
%
barometer
mb
20260508130536 53 308 5.0 9.0 0.00 0.00 0.00 61 1028.6
20260508125538 53 284 2.0 6.0 0.00 0.00 0.00 61 1028.6
20260508124539 52 297 4.0 5.0 0.00 0.00 0.00 63 1028.6
20260508123637 52 301 2.0 4.0 0.00 0.00 0.00 64 1028.6
20260508122639 52 294 4.0 6.0 0.00 0.00 0.00 64 1028.6
20260508120637 51 270 2.0 3.0 0.00 0.00 0.00 65 1028.4
20260508115636 51 277 1.0 2.0 0.00 0.00 0.00 67 1028.5
20260508112735 49 292 3.0 6.0 0.00 0.00 0.00 74 1028.2
20260508111740 48 292 2.0 2.0 0.00 0.00 0.00 76 1028.3
20260508110735 47 292 2.0 3.0 0.00 0.01 0.00 78 1028.2
20260508105737 47 292 2.0 2.0 0.00 0.01 0.00 79 1027.9
20260508104836 47 292 2.0 3.0 0.00 0.01 0.00 77 1028.0
20260508103838 47 292 0.0 1.0 0.00 0.01 0.00 76 1027.9
20260508102838 47 292 2.0 3.0 0.00 0.01 0.00 77 1027.6
20260508100936 47 286 0.0 2.0 0.00 0.02 0.00 79 1027.6
20260508095937 47 315 2.0 3.0 0.00 0.02 0.00 80 1027.3
20260508095036 47 292 2.0 3.0 0.00 0.02 0.00 78 1027.4
20260508094136 47 292 2.0 3.0 0.00 0.02 0.00 77 1027.4
20260508091138 47 303 2.0 3.0 0.00 0.02 0.00 74 1027.0
20260508090137 47 298 1.0 3.0 0.00 0.02 0.00 74 1026.9
20260508085138 47 315 1.0 3.0 0.00 0.02 0.00 73 1027.2
20260508084236 47 337 0.0 2.0 0.00 0.02 0.00 73 1027.2
20260508083239 47 337 1.0 3.0 0.00 0.02 0.00 72 1027.0
20260508082336 47 308 1.0 3.0 0.00 0.03 0.00 73 1027.3
20260508081338 47 284 1.0 3.0 0.00 0.03 0.00 72 1027.3
20260508080336 47 315 3.0 5.0 0.00 0.04 0.00 73 1027.4
20260508075337 47 299 3.0 6.0 0.00 0.04 0.00 75 1027.4
20260508074336 46 333 4.0 9.0 0.00 0.04 0.00 77 1027.5
20260508073436 46 308 2.0 8.0 0.00 0.05 0.00 78 1027.5
20260508072437 47 305 5.0 7.0 0.00 0.05 0.00 75 1027.6
20260508070438 49 310 3.0 7.0 0.00 0.11 0.00 63 1027.7
20260508065436 48 309 2.0 10.0 0.00 0.16 0.00 67 1027.4
20260508064436 47 292 3.0 3.0 0.00 0.17 0.00 71 1027.2
20260508063439 43 292 2.0 2.0 0.00 0.19 0.00 83 1026.1
20260508062438 43 292 0.0 0.0 0.00 0.21 0.00 85 1025.7
20260508055538 43 292 0.0 0.0 0.00 0.22 0.00 85 1025.3
20260508054636 43 292 0.0 0.0 0.00 0.22 0.00 84 1025.4
20260508053638 44 292 0.0 0.0 0.00 0.22 0.00 85 1025.5
20260508052638 44 292 0.0 0.0 0.00 0.22 0.00 86 1025.6
20260508051737 44 292 0.0 0.0 0.00 0.22 0.00 86 1025.4
20260508050836 44 292 0.0 0.0 0.00 0.22 0.00 86 1025.5
20260508045838 44 292 0.0 0.0 0.00 0.22 0.00 86 1025.4
20260508044937 45 292 0.0 0.0 0.00 0.22 0.00 86 1025.4
20260508043936 45 292 0.0 0.0 0.00 0.22 0.00 86 1025.4
20260508043035 45 292 0.0 0.0 0.00 0.22 0.00 87 1025.6
20260508042036 45 292 0.0 0.0 0.00 0.22 0.00 86 1025.6
20260508035216 45 292 0.0 0.0 0.00 0.22 0.22 83 1025.5
20260508034215 45 292 0.0 0.0 0.00 0.22 0.22 82 1025.6
20260508032218 46 292 0.0 0.0 0.00 0.22 0.22 81 1025.6
20260508025215 48 292 0.0 0.0 0.00 0.28 0.22 78 1025.5
20260508023217 48 292 0.0 0.0 0.00 0.30 0.22 76 1025.5
20260508022216 49 292 0.0 0.0 0.00 0.30 0.22 75 1025.5
20260508021216 49 292 0.0 0.0 0.00 0.30 0.22 75 1025.4
20260508014214 50 292 0.0 0.0 0.00 0.30 0.22 71 1025.5
20260508013215 50 292 0.0 0.0 0.00 0.30 0.22 70 1025.4
20260508012315 51 292 0.0 0.0 0.00 0.30 0.22 69 1025.3
20260508011316 51 292 0.0 0.0 0.00 0.30 0.22 67 1025.2
20260508010316 51 292 0.0 0.0 0.00 0.30 0.22 65 1025.3
20260508010217 51 292 0.0 0.0 0.00 0.30 0.22 65 1025.3
20260508005315 52 292 0.0 0.0 0.00 0.30 0.22 62 1025.0
20260508004316 52 292 0.0 0.0 0.00 0.30 0.22 59 1024.9
20260508003414 53 292 0.0 0.0 0.00 0.30 0.22 56 1024.7
20260508000416 56 292 0.0 0.0 0.00 0.30 0.22 50 1024.4
20260507235414 57 292 0.0 0.0 0.00 0.30 0.22 47 1024.1
20260507234415 58 292 0.0 0.0 0.00 0.30 0.22 45 1024.1
20260507234317 58 292 0.0 0.0 0.00 0.30 0.22 45 1024.2
20260507233316 58 292 0.0 1.0 0.00 0.30 0.22 43 1024.1
20260507232318 59 292 1.0 2.0 0.00 0.30 0.22 43 1024.0
20260507231315 59 292 1.0 2.0 0.00 0.30 0.22 41 1023.6
20260507230316 60 337 2.0 3.0 0.00 0.30 0.22 41 1023.7
20260507225317 60 337 1.0 1.0 0.00 0.30 0.22 40 1023.8
20260507224415 60 312 2.0 4.0 0.00 0.30 0.22 39 1023.7
20260507223417 60 270 0.0 1.0 0.00 0.30 0.22 37 1023.5
20260507221517 61 337 0.0 2.0 0.00 0.30 0.22 36 1023.5
20260507220516 61 306 2.0 3.0 0.00 0.30 0.22 36 1023.7
20260507215518 61 252 1.0 2.0 0.00 0.30 0.22 36 1023.6
20260507214615 61 294 4.0 5.0 0.00 0.30 0.22 36 1023.5
20260507213615 61 337 1.0 2.0 0.00 0.30 0.22 36 1023.6
20260507212714 61 252 1.0 3.0 0.00 0.30 0.22 36 1023.5
20260507211714 61 337 2.0 4.0 0.00 0.30 0.22 36 1023.4
20260507210716 61 337 0.0 3.0 0.00 0.30 0.22 36 1023.4
20260507205716 61 310 3.0 5.0 0.00 0.30 0.22 35 1023.4
20260507204715 61 344 2.0 4.0 0.00 0.30 0.22 35 1023.4
20260507203717 61 135 0.0 2.0 0.00 0.30 0.22 35 1023.4
20260507202716 62 313 3.0 4.0 0.00 0.30 0.22 35 1023.5
20260507201814 61 337 0.0 0.0 0.00 0.30 0.22 35 1023.5
20260507200817 61 283 2.0 4.0 0.00 0.30 0.22 35 1023.5
20260507195815 61 305 1.0 4.0 0.00 0.30 0.22 35 1023.5
20260507193816 63 292 0.0 0.0 0.00 0.30 0.22 34 1023.7
20260507192816 63 337 0.0 3.0 0.00 0.30 0.22 34 1023.8
20260507191816 64 337 2.0 4.0 0.00 0.30 0.22 33 1023.7
20260507190915 62 292 0.0 2.0 0.00 0.30 0.22 35 1023.8
20260507190015 62 292 3.0 4.0 0.00 0.30 0.22 34 1024.0
20260507185016 62 324 2.0 6.0 0.00 0.30 0.22 35 1024.0
20260507184016 62 337 2.0 4.0 0.00 0.30 0.22 35 1024.4
20260507183016 62 337 3.0 5.0 0.00 0.30 0.22 36 1024.4
20260507182016 60 292 2.0 4.0 0.00 0.30 0.22 36 1024.5
20260507180114 61 280 1.0 4.0 0.00 0.30 0.22 34 1024.8
20260507175116 61 337 0.0 2.0 0.00 0.31 0.22 36 1024.9
20260507174115 60 333 2.0 5.0 0.00 0.31 0.22 37 1024.9
20260507173115 60 289 4.0 6.0 0.00 0.32 0.22 37 1025.1
20260507172115 60 33 2.0 5.0 0.00 0.33 0.22 38 1025.1
20260507171117 60 337 3.0 6.0 0.00 0.34 0.22 38 1025.3
20260507170116 59 220 1.0 3.0 0.00 0.34 0.22 41 1025.4
20260507165116 59 300 3.0 6.0 0.00 0.34 0.22 44 1025.6
20260507163115 59 336 1.0 3.0 0.00 0.34 0.22 50 1025.8
20260507161116 58 337 2.0 3.0 0.00 0.34 0.22 54 1026.2
20260507153216 56 292 2.0 2.0 0.00 0.34 0.22 63 1026.5
20260507152217 56 281 2.0 4.0 0.00 0.34 0.22 64 1026.6
20260507151216 55 302 1.0 3.0 0.00 0.34 0.22 66 1026.5
20260507144317 55 294 3.0 5.0 0.00 0.34 0.22 69 1026.8
20260507141415 53 337 1.0 4.0 0.00 0.34 0.22 74 1026.8
20260507140416 52 291 3.0 5.0 0.00 0.34 0.22 75 1026.8
20260507135414 52 329 1.0 4.0 0.00 0.34 0.22 76 1026.6
20260507134432 53 290 3.0 4.0 0.00 0.34 0.22 77 1026.7
20260507133515 52 321 3.0 5.0 0.00 0.34 0.22 80 1026.6
20260507132515 51 275 2.0 3.0 0.00 0.34 0.22 81 1026.8
20260507131517 51 306 4.0 6.0 0.00 0.34 0.22 82 1027.0